AQI (22)

Current Conditions for Foresthill, CA. Sunny, Dry   
Visibility: 10 miles
Space WX Alerts: WARNING:  Geomagnetic K-index of 4 expected ( Latest Alert ) - Issue Time: 2020 Jun 01 2208 UTC

  Summary / Temperature 

Current Temperature
71.5°F
21.9°C
(24/hr Ago)
63.0°F
(Apparent temp)
72.9°F
Comfortable
Heat Index
73.2°F 

77.0°F/ 25°C
Little or no discomfort

 Temp Rate:

 24/hr Difference:

 Avg Running Temp:

 Todays High:

 Todays Low:

 Y-days High:

 Y-days Low:

 Todays HeatIdx:

 Y-days HeatIdx:

 Evapotranspiration:

-1.3°F/hr 

+8.5°F

73.2°F

76.3°F 4:55pm

55.0°F 5:33am

65.9°F 4:58pm

49.6°F 5:08am

76.9°F 4:52pm

68.8°F 4:54pm

0.167 in

115' Above Ground

 Temperature:

 6'AGL VRS 115'AGL:

 Avg Running Temp:

 Humidity:

 Todays High:

 Todays Low:

 Y-days High:

 Y-days Low:

73.0°F 

+1.5°F

72.7°F

50% 

74.0°F 3:59pm

55.0°F 4:55am

66.0°F 9:45am

53.0°F 12:35am

Temp & Humidity Graphs

  Wind 

Wind Speed

 6.0 mph

Gusting to

 7.0 mph

Wind from NW

323°  NW

Light breeze

 Avg speed:

 Wind Run:

 Peak Gust:

  1.0 mph 

20.0 miles

  12.0 mph 2:18pm

  Almanac  

Moon age: 10 days,14 hours,59 minutes,82%

Waxing Gibbous
82%
Illuminated
10 days in cycle

 Moonrise:

 Moonset:

 Sunrise:

 Sunset:

 Solar Noon:

3:49pm

3:11am

5:38am

8:22pm

1:02pm

1min 4s more daylight tomorrow 

  Solar Radiation 

(Current Solar)
  127 W/m2 (104%)
(Todays High)
 1290 W/m2@12:44pm
Feels like: 78.3°F in the sun

Rain

 Rain Today:

 Rain Rate (/hr):

 Rain last hour:

 Rain Yesterday:

 This Month:

 Season Total:

1 Day Since Last Rain Day

0.00 in

0.000 in

0.00 in

0.00 in

0.00 in

36.54 in

Updated Time

Updated: 6/1/20  7:14pm

(Updated  sec ago)

Humidity & Barometer

 Humidity:

 Wetbulb:

 Dew Point:

 Barometer:

59% 

62.4°F 

56.4°F 

29.978 inHg 

 Baro Trend:  Steady 
Northern Calif
Preparedness
Fire 
Level 

    UV Index  

(Current UV)
0.0  None
(Todays High) @ 12:42pm
9.8   Very High

National Weather Service Forecast

Tonight

Tonight: Partly Cloudy
Partly Cloudy
Tuesday

Tuesday: Sunny
Sunny
Tuesday
Night
Tuesday Night: Mostly Clear
Mostly Clear
Wednesday

Wednesday: Sunny
Sunny
Wednesday
Night
Wednesday Night: Mostly Clear
Mostly Clear
Thursday

Thursday: Sunny
Sunny
Lo 60 °F Hi 87 °F ↓ Lo 67 °F Hi 91 °F Lo 69 °F Hi 89 °F

Foresthill Probe 2 Stats  
Foresthill Probe 2: is located on Thomas Street
at 3000 feet. The main Foresthill Weather site
is located on Melody ln at the 2860 foot elevation

Calm
70.6°F
21.4°C
Temp Rate:
-1.1°F
Calm
Gusting to
None
(Humidity)
58%
Calm
327°  
Updated: 01/06/20 - 19:16:05
 Todays High: 74.9°F 14:37
 Todays Low: 55.5°F 06:09
 Rain Today: 0.00 in
 Season Total: 36.64 in

Foresthill Wx: Monthly,Yearly, Highs and Lows 

Foresthill  
This Weather Data is coming from the main Foresthill
Weather site located on Melody ln at the 2860 foot
elevation
Not Foresthill Probe 2
Weather Data
Month
  High
Month
  Low
Year
High
Year
Low
Temp 76.3°F
6/1/20
55.0°F
6/1/20
94.3°F
5/28/20
28.3°F
2/3/20
Humidity 93%
6/1/20
44%
6/1/20
100%
1/8/20
12%
2/17/20
Heat Index 76.9°F
6/1/20
60.3°F
6/1/20
92.1°F
5/28/20
28.2°F
2/4/20
Wind Chill 76.3°F
6/1/20
53.7°F
6/1/20
94.3°F
5/28/20
14.7°F
2/3/20
Wind Gust 12 mph
6/1/20
0 mph
6/1/20
46 mph
2/9/20
0 mph
1/1/20
Barometer 30.02 in
6/1/20
29.94 in
6/1/20
30.59 in
1/5/20
29.66 in
3/13/20
ET 0.16 in
6/1/20
0.00 in
6/1/20
0.27 in
5/28/20
0.00 in
1/1/20
Dew Point 58.1°F
6/1/20
49.0°F
6/1/20
66.4°F
5/29/20
-2.6°F
2/3/20
Visible Satellite Pacific Satellite US Radar Satellite Imagery Sacramento,CA.  (click to enlarge)
NWS Weather Forecast - Summary
Updated: Monday, June 1, 2020 - 3:16pm PDT
NWS Weather Forecast: Tonight and Tuesday (Updated: Mon, 01-Jun-2020 1:45pm PDT)
Tonight

Tonight: Partly Cloudy
Partly Cloudy

Lo 60 °F
NWS forecast: Partly cloudy, with a low around 60. Northeast wind 2 to 7 mph.
Tuesday

Tuesday: Sunny
Sunny

Hi 87 °F ↓
NWS forecast: Sunny. High near 87, with temperatures falling to around 85 in the afternoon. Southeast wind 3 to 7 mph.
YR.NO 10 Day Weather forecast
Last update: 06/01/2020 @ 13:40
Next update: 06/01/2020 @ 19:46
Provided by: 22
      Temperature Precipitation Pressure Wind  
Today
06/01/2020
17:00 18:00 70°F   29.98 inHg Light breeze from west 4 mph
  18:00 00:00 70°F   29.98 inHg Light breeze from west-northwest 4 mph
    (Click to enlarge)
meteogram

    Forecast for next 9 days

      Temperature Precip Pressure Wind  
Tuesday
06/02/2020
00:00 06:00 54°F   30.00 inHg Light breeze from east-northeast 5 mph
  06:00 12:00 54°F   29.97 inHg Light breeze from east-northeast 7 mph
  12:00 18:00 81°F   29.99 inHg Light breeze from west 5 mph
  18:00 00:00 81°F   29.97 inHg Light breeze from west-northwest 4 mph
      Temperature Precip Pressure Wind  
Wednesday
06/03/2020
00:00 06:00 57°F   29.99 inHg Light breeze from east-northeast 6 mph
  06:00 12:00 52°F   29.96 inHg Light breeze from east-northeast 6 mph
  12:00 18:00 88°F   29.94 inHg Light breeze from west 5 mph
  18:00 00:00 86°F   29.85 inHg Light breeze from west-northwest 5 mph
  23:00 05:00 63°F   29.86 inHg Light breeze from east 4 mph
      Temperature Precip Pressure Wind  
Thursday
06/04/2020
05:00 11:00 55°F   29.80 inHg Light breeze from east 6 mph
  11:00 17:00 88°F   29.77 inHg Light breeze from southwest 6 mph
  17:00 23:00 88°F   29.70 inHg Light breeze from southwest 6 mph
  23:00 05:00 63°F   29.70 inHg Light breeze from east 6 mph
      Temperature Precip Pressure Wind  
Friday
06/05/2020
05:00 11:00 57°F   29.66 inHg Light breeze from east 5 mph
  11:00 17:00 75°F   29.68 inHg Light breeze from southwest 6 mph
  17:00 23:00 75°F   29.63 inHg Gentle breeze from south-southwest 8 mph
  23:00 05:00 57°F 0.02 in 29.73 inHg Light breeze from south-southeast 6 mph
      Temperature Precip Pressure Wind  
Saturday
06/06/2020
05:00 11:00 50°F 0.38 in 29.79 inHg Gentle breeze from south 8 mph
  11:00 17:00 52°F 0.03 in 29.94 inHg Gentle breeze from south 12 mph
  17:00 23:00 59°F   29.95 inHg Gentle breeze from south-southwest 9 mph
  23:00 05:00 48°F   30.04 inHg Light breeze from southeast 6 mph
      Temperature Precip Pressure Wind  
Sunday
06/07/2020
05:00 11:00 41°F   30.05 inHg Light breeze from east 4 mph
  11:00 17:00 59°F   30.08 inHg Light breeze from southwest 7 mph
  17:00 23:00 61°F   30.04 inHg Light breeze from west-southwest 6 mph
  23:00 05:00 45°F   30.03 inHg Light air from east 1 mph
      Temperature Precip Pressure Wind  
Monday
06/08/2020
05:00 11:00 39°F   30.01 inHg Light breeze from east-northeast 6 mph
  11:00 17:00 64°F   30.03 inHg Light breeze from west 6 mph
  17:00 23:00 68°F   29.99 inHg Light breeze from west-northwest 7 mph
  23:00 05:00 50°F   30.00 inHg Light breeze from east-northeast 5 mph
      Temperature Precip Pressure Wind  
Tuesday
06/09/2020
05:00 11:00 48°F   29.95 inHg Gentle breeze from east-northeast 8 mph
  11:00 17:00 73°F   29.96 inHg Light breeze from west 6 mph
  17:00 23:00 75°F   29.94 inHg Light breeze from west-southwest 5 mph
  23:00 05:00 54°F   29.98 inHg Light air from east 3 mph
      Temperature Precip Pressure Wind  
Wednesday
06/10/2020
05:00 11:00 48°F   29.95 inHg Light breeze from east-northeast 5 mph
  11:00 17:00 75°F   29.98 inHg Light breeze from west-southwest 6 mph
  17:00 23:00 77°F   29.97 inHg Light breeze from west-southwest 6 mph

NOAA Local Storm Report
2 MILES SOUTH OF ARBOGA   ( More )
DATE
05/30/2020
TIME
3:45 AM
COUNTY
YUBA
STATE
CA
GEOGRAPHIC
39.02N 121.55W
SOURCE
PUBLIC
HAIL ESTIMATED AT 0.25 INCH
pea sized hail reported in plumas lake, ca around 3:45 am. Pictures sent to us via social media.
How Close Are We To this Month's Temperature Record ?
Updated Monday, Jun 1, 2020- 7:15:00 PM

Current Temperature: 71.5°F

June's High: Temperature Record 95.1°F - Set on Sat, Jun 8, 2013 - 3:58:00 PM
We are currently 23.6°F Less than this Month's record High

June's Low: Temperature Record 40.8°F - Set on Tue, Jun 5, 2012 - 5:41:00 AM
We are currently 30.7°F More than this Month's record Low

Weather History For Monday, June 1, 2020


On this Day - In Weather History ...
Data courtesy of weatherforyou.com
powered by Cumulus v1.9.3 (1059)
Ambient Weather VWS v14.00
Top Website Map Copyright © 2007 - 2020 Foresthillweather.com Never base important decisions on this or any weather information obtained from the Internet